Hourly Data Report for October 06, 2017

All times are specified in Local Standard Time (LST). Add 1 hour to adjust for Daylight Saving Time where and when it is observed.

CHESTERFIELD INLET A
NUNAVUT

63°20'50.000" N
90°43'52.000" W
9.80 m
2300710
YCS

Related Data

No related data is available for this station

Download Data

Hourly Data (October 2017)
Hourly Data Report for October 6, 2017
Temp Definition
°C
Dew Point Temp Definition
°C
Rel Hum Definition
%
Wind Dir Definition
10's deg

Wind Spd Definition
km/h
Visibility Definition
km
Stn Press Definition
kPa
Hmdx Definition


Wind Chill Definition


Weather Definition


TIME
00:00 Legend Double Dagger -3.4 -5.9 82 32 40 LegendMM 99.40   -12 LegendNANA
01:00 Legend Double Dagger -3.1 -5.7 82 31 39 LegendMM 99.43   -11 LegendNANA
02:00 Legend Double Dagger -3.1 -5.8 82 32 38 LegendMM 99.42   -11 LegendNANA
03:00 Legend Double Dagger -2.7 -5.7 80 32 42 LegendMM 99.44   -11 LegendNANA
04:00 Legend Double Dagger -2.2 -5.2 80 34 41 LegendMM 99.47   -10 LegendNANA
05:00 Legend Double Dagger -2.3 -5.5 79 33 36 LegendMM 99.49   -10 LegendNANA
06:00 Legend Double Dagger -2.1 -5.4 79 34 36 LegendMM 99.54   -10 LegendNANA
07:00 Legend Double Dagger -1.9 -5.5 76 34 38 LegendMM 99.58   -10 LegendNANA
08:00 Legend Double Dagger -1.9 -4.9 80 34 32 LegendMM 99.62   -9 LegendNANA
09:00 Legend Double Dagger -1.6 -4.2 82 33 25 LegendMM 99.66   -8 LegendNANA
10:00 Legend Double Dagger -1.2 -4.0 81 1 27 LegendMM 99.68   -8 LegendNANA
11:00 Legend Double Dagger -0.8 -3.8 80 36 23 LegendMM 99.75   -7 LegendNANA
12:00 Legend Double Dagger -0.4 -3.5 80 1 19 LegendMM 99.79   -6 LegendNANA
13:00 Legend Double Dagger -0.2 -3.9 76 1 21 LegendMM 99.87   -6 LegendNANA
14:00 Legend Double Dagger -0.2 -3.7 77 35 15 LegendMM 99.92   -5 LegendNANA
15:00 Legend Double Dagger -0.1 -4.0 75 36 18 LegendMM 99.93   -5 LegendNANA
16:00 Legend Double Dagger -0.3 -4.2 75 2 13 LegendMM 99.96   -4 LegendNANA
17:00 Legend Double Dagger -0.3 -4.1 76 2 12 LegendMM 100.01   -4 LegendNANA
18:00 Legend Double Dagger -0.4 -4.0 76 2 9 LegendMM 100.05   -4 LegendNANA
19:00 Legend Double Dagger -0.8 -4.3 77 3 13 LegendMM 100.10   -5 LegendNANA
20:00 Legend Double Dagger -1.9 -4.9 80 36 8 LegendMM 100.14   -5 LegendNANA
21:00 Legend Double Dagger -1.9 -4.4 83 28 4 LegendMM 100.17   -3 LegendNANA
22:00 Legend Double Dagger -1.9 -4.5 82 34 4 LegendMM 100.18   -3 LegendNANA
23:00 Legend Double Dagger -2.7 -4.9 85 31 7 LegendMM 100.18   -6 LegendNANA

Notes on Data Quality.

Legend

  • E = Estimated
  • M = Missing
  • NA = Not Available
  • ‡ = Partner data that is not subject to review by the National Climate Archives
Date modified: